DW6942 Weather Reports


time (UTC)temp
C
wind
direction
speed
KPH
gust
KPH
rain 1hr
cm
rain 24hr
cm
rain mn
cm
humidity
%
barometer
mb
20260502151606 -17 0.0 0.0 0.00 0.00 0.00 1022.8
20260502123007 -17 0.0 0.0 0.00 0.00 0.00 1021.1
20260502121503 -17 0.0 0.0 0.00 0.00 0.00 1020.8
20260502114556 -17 0.0 0.0 0.00 0.00 0.00 1020.6
20260502113049 -17 0.0 0.0 0.00 0.00 0.00 1020.4
20260502111555 -17 0.0 0.0 0.00 0.00 0.00 1020.4
20260502110047 -17 0.0 0.0 0.00 0.00 0.00 1019.9
20260502104543 -17 0.0 0.0 0.00 0.00 0.00 1020.0
20260502103041 -17 0.0 0.0 0.00 0.00 0.00 1019.8
20260502101528 -17 0.0 0.0 0.00 0.00 0.00 1019.6
20260502091509 -17 0.0 0.0 0.00 0.41 0.00 1018.6
20260502080103 -17 0.0 0.0 0.00 0.86 0.00 1018.0
20260502071535 -17 0.0 0.0 0.00 0.91 0.00 1018.2
20260502070033 -17 0.0 0.0 0.00 0.91 0.00 1018.4
20260502064530 -17 0.0 0.0 0.00 0.99 0.00 1018.2
20260502063022 -17 0.0 0.0 0.00 0.99 0.00 1018.1
20260502061517 -17 0.0 0.0 0.00 0.99 0.00 1018.0
20260502060014 -17 0.0 0.0 0.00 0.99 0.00 1018.0
20260502054508 -17 0.0 0.0 0.00 1.27 0.00 1017.9
20260502053005 -17 0.0 0.0 0.00 1.27 0.00 1018.1
20260502051604 -17 0.0 0.0 0.00 1.27 0.00 1018.0
20260502050059 -17 0.0 0.0 0.00 1.27 0.00 1018.0
20260502044551 -17 0.0 0.0 0.00 1.32 1.27 1017.9
20260502043051 -17 0.0 0.0 0.00 1.32 1.27 1017.7
20260502041543 -17 0.0 0.0 0.00 1.32 1.27 1017.6
20260502040039 -17 0.0 0.0 0.00 1.32 1.27 1017.8
20260502034536 -17 0.0 0.0 0.00 1.32 1.27 1017.9
20260502033031 -17 0.0 0.0 0.00 1.32 1.27 1017.7
20260502031525 -17 0.0 0.0 0.00 1.32 1.27 1017.4
20260502030021 -17 0.0 0.0 0.00 1.32 1.27 1017.1
20260502024516 -17 0.0 0.0 0.00 1.32 1.27 1016.6
20260502023015 -17 0.0 0.0 0.00 1.32 1.27 1016.2
20260502021515 -17 0.0 0.0 0.00 1.32 1.27 1016.1
20260502020017 -17 0.0 0.0 0.00 1.32 1.27 1016.2
20260502014506 -17 0.0 0.0 0.00 1.32 1.27 1015.7
20260502013002 -17 0.0 0.0 0.00 1.32 1.27 1015.3
20260502011610 -17 0.0 0.0 0.00 1.32 1.27 1016.0
20260502010055 -17 0.0 0.0 0.00 1.32 1.27 1015.5
20260502004600 -17 0.0 0.0 0.00 1.32 1.27 1014.3
20260502003045 -17 0.0 0.0 0.00 1.32 1.27 1014.8
20260502001541 -17 0.0 0.0 0.00 1.32 1.27 1014.9
20260502000036 -17 0.0 0.0 0.00 1.32 1.27 1014.5
20260501234537 -17 0.0 0.0 0.00 1.32 1.27 1014.7
20260501233028 -17 0.0 0.0 0.00 1.32 1.27 1014.0
20260501231535 -17 0.0 0.0 0.00 1.32 1.27 1013.2
20260501230023 -17 0.0 0.0 0.00 1.32 1.27 1013.1
20260501224513 -17 0.0 0.0 0.00 1.32 1.27 1012.1
20260501223009 -17 0.0 0.0 0.00 1.32 1.27 1011.7
20260501221506 -17 0.0 0.0 0.00 1.32 1.27 1012.2
20260501220001 -17 0.0 0.0 0.00 1.32 1.27 1013.0
20260501214557 -17 0.0 0.0 0.00 1.32 1.27 1013.4
20260501213053 -17 0.0 0.0 0.00 1.32 1.27 1013.2
20260501211548 -17 0.0 0.0 0.00 1.32 1.27 1013.2
20260501210045 -17 0.0 0.0 0.00 1.32 1.27 1011.8
20260501204539 -17 0.0 0.0 0.00 1.32 1.27 1012.2
20260501203034 -17 0.0 0.0 0.00 1.32 1.27 1011.9
20260501201531 -17 0.0 0.0 0.00 1.32 1.27 1011.4
20260501200028 -17 0.0 0.0 0.00 1.32 1.27 1012.0
20260501194521 -17 0.0 0.0 0.00 1.32 1.27 1012.4
20260501193032 -17 0.0 0.0 0.00 1.32 1.27 1012.0
20260501191516 -17 0.0 0.0 0.00 1.32 1.27 1012.2
20260501190028 -17 0.0 0.0 0.00 1.32 1.27 1011.3
20260501184504 -17 0.0 0.0 0.00 1.32 1.27 1011.6
20260501183105 -17 0.0 0.0 0.00 1.32 1.27 1011.0
20260501181555 -17 0.0 0.0 0.00 1.32 1.27 1009.4
20260501180052 -17 0.0 0.0 0.00 1.32 1.27 1009.6
20260501174548 -17 0.0 0.0 0.00 1.32 1.27 1011.8
20260501173042 -17 0.0 0.0 0.00 1.32 1.27 1012.7
20260501171538 -17 0.0 0.0 0.00 1.32 1.27 1012.9
20260501170036 -17 0.0 0.0 0.00 1.32 1.27 1012.9
20260501164531 -17 0.0 0.0 0.00 1.32 1.27 1013.4
20260501163024 -17 0.0 0.0 0.00 1.32 1.27 1013.9
20260501161521 -17 0.0 0.0 0.00 1.32 1.27 1014.6
20260501160015 -17 0.0 0.0 0.00 1.32 1.27 1014.7
20260501154515 -17 0.0 0.0 0.00 1.32 1.27 1015.1